LTU120 EDDN-EDDC

Flight info

Callsign LTU120
Flight time 0h 26m
Altitude 21000
Route ERETO1C/10 ERETO Z715 ABKIS Q240 DRN
Aircraft L101/H-SDFGHIRWXY/S

Departure

Time 2026-05-08 21:27
Airport Nuremberg Airport (EDDN)

Arrival

Time 2026-05-08 21:54
Airport Dresden Airport (EDDC)
Time Latitude Longitude Altitude Speed Heading
2026-05-08 21:11 49.49559 11.08558 1038 ft 0 kts 186°
2026-05-08 21:20 49.49551 11.08557 1038 ft 4 kts 186°
2026-05-08 21:20 49.49515 11.08534 1039 ft 7 kts 229°
2026-05-08 21:20 49.49504 11.08482 1039 ft 9 kts 263°
2026-05-08 21:21 49.49521 11.08359 1038 ft 14 kts 291°
2026-05-08 21:21 49.49549 11.08142 1035 ft 25 kts 278°
2026-05-08 21:21 49.49578 11.07867 1035 ft 25 kts 301°
2026-05-08 21:21 49.49689 11.07692 1037 ft 23 kts 279°
2026-05-08 21:22 49.49717 11.07423 1033 ft 29 kts 278°
2026-05-08 21:22 49.49748 11.07094 1024 ft 34 kts 278°
2026-05-08 21:22 49.49786 11.06710 1022 ft 38 kts 279°
2026-05-08 21:22 49.49826 11.06297 1023 ft 39 kts 278°
2026-05-08 21:23 49.49872 11.05997 1023 ft 21 kts 316°
2026-05-08 21:23 49.49931 11.05955 1023 ft 0 kts 341°
2026-05-08 21:25 49.49949 11.05945 1023 ft 7 kts 341°
2026-05-08 21:25 49.50023 11.05959 1023 ft 14 kts 40°
2026-05-08 21:25 49.50039 11.06076 1023 ft 0 kts 98°
2026-05-08 21:26 49.50038 11.06083 1022 ft 9 kts 98°
2026-05-08 21:27 49.49976 11.06731 1020 ft 113 kts 98°
2026-05-08 21:27 49.49806 11.08325 1434 ft 169 kts 98°
2026-05-08 21:27 49.49611 11.10243 2460 ft 200 kts 98°
2026-05-08 21:27 49.49383 11.12572 3251 ft 241 kts 99°
2026-05-08 21:28 49.49119 11.15362 3839 ft 280 kts 98°
2026-05-08 21:28 49.48921 11.18385 5005 ft 284 kts 90°
2026-05-08 21:28 49.49257 11.21354 6535 ft 285 kts 68°
2026-05-08 21:28 49.50263 11.23932 7857 ft 280 kts 46°
2026-05-08 21:29 49.51802 11.25711 9213 ft 280 kts 24°
2026-05-08 21:29 49.53636 11.26799 10377 ft 287 kts 18°
2026-05-08 21:29 49.55526 11.27935 11246 ft 294 kts 23°
2026-05-08 21:29 49.57341 11.29426 12075 ft 298 kts 30°
2026-05-08 21:30 49.59072 11.31229 12895 ft 301 kts 34°
2026-05-08 21:30 49.60740 11.33240 13702 ft 307 kts 40°
2026-05-08 21:30 49.62284 11.35535 14447 ft 312 kts 45°
2026-05-08 21:30 49.63780 11.37994 15186 ft 316 kts 46°
2026-05-08 21:31 49.65265 11.40522 15931 ft 321 kts 47°
2026-05-08 21:31 49.66814 11.43161 16702 ft 345 kts 47°
2026-05-08 21:31 49.68495 11.45986 17492 ft 370 kts 46°
2026-05-08 21:31 49.70313 11.48993 18284 ft 394 kts 46°
2026-05-08 21:32 49.72248 11.52148 18956 ft 417 kts 45°
2026-05-08 21:32 49.74285 11.55437 19409 ft 426 kts 45°
2026-05-08 21:32 49.76354 11.58754 19837 ft 430 kts 45°
2026-05-08 21:32 49.78446 11.62096 20307 ft 433 kts 45°
2026-05-08 21:33 49.80550 11.65457 20820 ft 439 kts 45°
2026-05-08 21:33 49.82705 11.68904 21317 ft 450 kts 45°
2026-05-08 21:33 49.84893 11.72413 21848 ft 455 kts 45°
2026-05-08 21:33 49.87073 11.75920 22378 ft 459 kts 45°
2026-05-08 21:34 49.89296 11.79505 22920 ft 463 kts 45°
2026-05-08 21:34 49.91537 11.83128 23481 ft 467 kts 45°
2026-05-08 21:34 49.93795 11.86785 23869 ft 473 kts 45°
2026-05-08 21:34 49.96074 11.90481 24021 ft 475 kts 45°
2026-05-08 21:35 49.98361 11.94199 24101 ft 476 kts 45°
2026-05-08 21:35 50.00644 11.97918 24151 ft 476 kts 45°
2026-05-08 21:35 50.02931 12.01646 24153 ft 476 kts 45°
2026-05-08 21:35 50.05215 12.05371 24158 ft 476 kts 45°
2026-05-08 21:36 50.07501 12.09101 24162 ft 476 kts 45°
2026-05-08 21:36 50.09786 12.12839 24158 ft 476 kts 45°
2026-05-08 21:36 50.12065 12.16575 24160 ft 476 kts 45°
2026-05-08 21:36 50.14344 12.20314 24158 ft 476 kts 45°
2026-05-08 21:37 50.16626 12.24062 24156 ft 476 kts 45°
2026-05-08 21:37 50.18899 12.27801 24162 ft 476 kts 45°
2026-05-08 21:37 50.21179 12.31556 24158 ft 476 kts 45°
2026-05-08 21:37 50.23452 12.35309 24165 ft 476 kts 45°
2026-05-08 21:38 50.25724 12.39064 24156 ft 475 kts 45°
2026-05-08 21:38 50.27996 12.42825 24157 ft 475 kts 45°
2026-05-08 21:38 50.30271 12.46594 23796 ft 479 kts 45°
2026-05-08 21:38 50.32542 12.50365 22986 ft 474 kts 45°
2026-05-08 21:39 50.34784 12.54096 22157 ft 467 kts 45°
2026-05-08 21:39 50.36995 12.57778 21357 ft 462 kts 45°
2026-05-08 21:39 50.39175 12.61415 20602 ft 452 kts 45°
2026-05-08 21:39 50.41298 12.64964 19844 ft 441 kts 45°
2026-05-08 21:40 50.43371 12.68432 19108 ft 429 kts 45°
2026-05-08 21:40 50.45347 12.71745 18397 ft 413 kts 45°
2026-05-08 21:40 50.47273 12.74978 17589 ft 399 kts 45°
2026-05-08 21:41 50.51041 12.81301 16025 ft 390 kts 45°
2026-05-08 21:41 50.52888 12.84402 15288 ft 386 kts 45°
2026-05-08 21:41 50.54684 12.87423 14557 ft 381 kts 45°
2026-05-08 21:41 50.56502 12.90491 13937 ft 375 kts 45°
2026-05-08 21:42 50.58273 12.93483 13399 ft 372 kts 45°
2026-05-08 21:42 50.60012 12.96483 12868 ft 369 kts 49°
2026-05-08 21:42 50.61460 12.99658 12375 ft 354 kts 57°
2026-05-08 21:42 50.62631 13.02975 11852 ft 340 kts 62°
2026-05-08 21:43 50.63726 13.06175 11339 ft 326 kts 55°
2026-05-08 21:43 50.65093 13.08949 10826 ft 315 kts 46°
2026-05-08 21:43 50.66622 13.11379 10241 ft 310 kts 41°
2026-05-08 21:43 50.68227 13.13613 9600 ft 306 kts 39°
2026-05-08 21:44 50.69849 13.15748 8942 ft 302 kts 38°
2026-05-08 21:44 50.71460 13.17843 8333 ft 297 kts 38°
2026-05-08 21:44 50.73023 13.19898 7948 ft 287 kts 39°
2026-05-08 21:44 50.74515 13.21895 7587 ft 277 kts 39°
2026-05-08 21:45 50.75953 13.23850 7206 ft 269 kts 40°
2026-05-08 21:45 50.77348 13.25766 6845 ft 262 kts 40°
2026-05-08 21:45 50.78703 13.27645 6476 ft 257 kts 40°
2026-05-08 21:45 50.80033 13.29496 6079 ft 252 kts 40°
2026-05-08 21:46 50.81344 13.31314 5688 ft 249 kts 40°
2026-05-08 21:46 50.82645 13.33122 5168 ft 250 kts 40°
2026-05-08 21:46 50.83938 13.34961 4673 ft 250 kts 41°
2026-05-08 21:46 50.85203 13.36771 4429 ft 234 kts 41°
2026-05-08 21:47 50.86386 13.38449 4342 ft 228 kts 41°
2026-05-08 21:47 50.87583 13.40133 4214 ft 231 kts 41°
2026-05-08 21:47 50.88783 13.41823 4158 ft 230 kts 41°
2026-05-08 21:47 50.89971 13.43527 4151 ft 230 kts 43°
2026-05-08 21:48 50.91120 13.45289 4172 ft 229 kts 44°
2026-05-08 21:48 50.92208 13.47011 4179 ft 213 kts 45°
2026-05-08 21:48 50.93243 13.48655 4183 ft 210 kts 45°
2026-05-08 21:48 50.94225 13.50320 4183 ft 209 kts 45°
2026-05-08 21:49 50.95276 13.51921 4185 ft 210 kts 42°
2026-05-08 21:49 50.96368 13.53457 4184 ft 210 kts 40°
2026-05-08 21:49 50.97458 13.54982 4274 ft 209 kts 41°
2026-05-08 21:49 50.98559 13.56516 4245 ft 212 kts 40°
2026-05-08 21:50 50.99674 13.58043 4046 ft 212 kts 40°
2026-05-08 21:50 51.00783 13.59554 3814 ft 207 kts 40°
2026-05-08 21:50 51.01848 13.61004 3551 ft 197 kts 41°
2026-05-08 21:50 51.02878 13.62407 3291 ft 194 kts 41°
2026-05-08 21:51 51.03888 13.63784 3133 ft 190 kts 41°
2026-05-08 21:51 51.04895 13.65156 2830 ft 191 kts 41°
2026-05-08 21:51 51.05901 13.66529 2518 ft 188 kts 42°
2026-05-08 21:51 51.06826 13.67787 2249 ft 161 kts 42°
2026-05-08 21:52 51.07651 13.68913 1967 ft 156 kts 42°
2026-05-08 21:52 51.08475 13.70028 1801 ft 157 kts 41°
2026-05-08 21:52 51.09313 13.71159 1598 ft 159 kts 41°
2026-05-08 21:52 51.10153 13.72306 1380 ft 160 kts 41°
2026-05-08 21:53 51.10992 13.73464 1195 ft 160 kts 40°
2026-05-08 21:53 51.11837 13.74629 995 ft 161 kts 40°
2026-05-08 21:53 51.12670 13.75755 778 ft 145 kts 40°
2026-05-08 21:53 51.13324 13.76646 744 ft 104 kts 39°
2026-05-08 21:54 51.13797 13.77292 735 ft 80 kts 40°
2026-05-08 21:54 51.14128 13.77750 724 ft 49 kts 42°
2026-05-08 21:54 51.14346 13.78052 721 ft 30 kts 41°
2026-05-08 21:54 51.14328 13.78251 718 ft 20 kts 136°
2026-05-08 21:55 51.14212 13.78345 716 ft 18 kts 206°
2026-05-08 21:55 51.14115 13.78212 721 ft 20 kts 220°
2026-05-08 21:55 51.13997 13.78052 721 ft 24 kts 220°
2026-05-08 21:56 51.13693 13.77631 727 ft 32 kts 221°
2026-05-08 21:56 51.13516 13.77385 733 ft 36 kts 221°
2026-05-08 21:56 51.13317 13.77117 736 ft 39 kts 220°
2026-05-08 21:56 51.13107 13.76828 745 ft 41 kts 221°
2026-05-08 21:57 51.12886 13.76523 749 ft 41 kts 221°
2026-05-08 21:57 51.12760 13.76382 752 ft 15 kts 176°
2026-05-08 21:57 51.12708 13.76363 752 ft 9 kts 203°
2026-05-08 21:57 51.12679 13.76350 753 ft 1 kts 180°
2026-05-08 21:58 51.12661 13.76358 754 ft 3 kts 153°
2026-05-08 21:58 51.12647 13.76375 755 ft 2 kts 141°
2026-05-08 21:58 51.12637 13.76390 756 ft 0 kts 136°
2026-05-08 21:58 51.12635 13.76392 756 ft 0 kts 134°